Home > Weather > Campinas > Past weeks

Flag for Brazil Weather for the Past 2 Weeks in Campinas, São Paulo, Brazil

Now
77 °F

Passing clouds.


Feels Like: 79 °F
Forecast: 71 / 83 °F
Wind: 6 mph from South

Location: Campinas Aeroporto

Current Time: Feb 11, 2016 at 12:46:05 AM

Latest Report: Feb 11, 2016 at 12:00 AM


Visibility: N/A

Pressure: 30.09 "Hg (27.81 "Hg at 686m altitude)

Humidity: 79%

Dew point: 70 °F

Location of CampinasLocation

Historic Weather in Campinas — Graph

°F

Campinas Temperature Yesterday

Maximum temperature yesterday: 91 °F (at 4:00 PM)
Minimum temperature yesterday: 72 °F (at 6:00 AM)
Average temperature yesterday: 81 °F

High & Low Weather Summary for the Past Weeks

 TemperatureHumidityPressure
High95 °F (Feb 2, 4:00 PM)100% (Jan 27, 7:00 PM)30.15 "Hg (Jan 27, 7:00 PM)
Low68 °F (Feb 1, 7:00 AM)24% (Jan 31, 5:00 PM)29.89 "Hg (Jan 27, 4:00 AM)
Average78 °F71%30.04 "Hg
* Reported Jan 26 11:00 PM — Feb 10 11:00 PM, Campinas, Weather by CustomWeather, © 2016

Note: Actual official high and low records may vary slightly from our data, if they occured in-between our weather recording intervals... More about our weather records

Advertising

Campinas Weather History for the Previous 24 Hours

 ConditionsComfort  
Time TempWeatherWind HumidityBarometerVisibility
11:00 PM
Wed, Feb 10
77 °FPassing clouds.6 mph79%30.07 "HgN/A
10:00 PM79 °FPassing clouds.10 mph70%30.07 "HgN/A
8:00 PM82 °FThundershowers. Passing clouds.10 mph66%30.01 "HgN/A
7:00 PM84 °FThundershowers. Partly sunny.5 mph55%29.98 "HgN/A
6:00 PM88 °FThundershowers. Scattered clouds.8 mph52%29.98 "HgN/A
5:00 PM90 °FScattered clouds.9 mph43%29.98 "HgN/A
4:00 PM91 °FScattered clouds.7 mph38%30.01 "HgN/A
3:00 PM90 °FScattered clouds.9 mph43%30.01 "HgN/A
2:00 PM90 °FScattered clouds.8 mph43%30.04 "HgN/A
1:00 PM88 °FScattered clouds.7 mph52%30.07 "HgN/A
12:00 PM86 °FScattered clouds.6 mph55%30.07 "HgN/A
11:00 AM84 °FSunny.6 mph58%30.09 "Hg10 mi
10:00 AM81 °FSunny.8 mph62%30.09 "Hg10 mi
9:00 AM79 °FSunny.6 mph70%30.07 "Hg10 mi
8:00 AM75 °FSunny.3 mph83%30.07 "Hg10 mi
7:00 AM72 °FSunny.5 mph94%30.04 "Hg10 mi
6:00 AM72 °FClear.2 mph94%30.04 "Hg10 mi
5:00 AM73 °FClear.5 mph94%30.04 "Hg10 mi
4:00 AM73 °FClear.5 mph94%30.04 "Hg10 mi
3:00 AM73 °FClear.6 mph89%30.07 "Hg10 mi
2:00 AM75 °FClear.6 mph83%30.07 "Hg10 mi
1:00 AM75 °FClear.3 mph83%30.09 "Hg10 mi
12:00 AM77 °FClear.6 mph74%30.09 "Hg10 mi
Weather by CustomWeather, © 2016

See weather overviewHow to use our weather pages